Flag for Hungary Weather past 2 weeks in Szeged, Hungary

Now
57 °F

Overcast.


Feels Like: 57 °F
Forecast: 52 / 71 °F
Wind: 2 mph from North

Location: Szeged


UV Index: 0 (Low)

Visibility: 4 mi


Pressure: 29.88 "Hg

Humidity: 94%

Dew point: 56 °F

Location of SzegedLocation

Historic Weather in Szeged

°F

Szeged temperature yesterday

Maximum temperature yesterday: 62 °F (at 12:00 PM)
Minimum temperature yesterday: 57 °F (at 7:00 AM)
Average temperature yesterday: 60 °F

Past Weeks' High & Low Weather Summary

 TemperatureHumidityPressure
High71 °F (Apr 21, 3:00 PM)98% (Apr 23, 4:00 AM)30.08 "Hg (Apr 23, 4:00 AM)
Low35 °F (Apr 10, 6:00 AM)32% (Apr 13, 1:00 PM)29.60 "Hg (Apr 19, 5:00 AM)
Average54 °F72%29.92 "Hg
* Reported Apr 10 2:00 AM — Apr 25 2:00 AM, Szeged, Weather by CustomWeather, © 2014

Note: Actual official high and low records may vary slightly from our data, if they occured in-between our weather recording intervals... More about our weather records

Advertising

Historic Weather Conditions — Data for Previous 24 hours

 ConditionsComfort  
Time TempWeatherWind HumidityBarometerVisibility
2:00 AM
Apr 25
58 °FLight rain. Overcast.1 mph94%29.89 "Hg3 mi
1:00 AM58 °FLight rain. Overcast.1 mph93%29.89 "Hg4 mi
12:00 AM58 °FOvercast.2 mph91%29.89 "Hg7 mi
11:00 PM
Apr 24
58 °FOvercast.2 mph92%29.89 "Hg6 mi
10:00 PM59 °FOvercast.2 mph92%29.89 "Hg6 mi
9:00 PM59 °FOvercast.1 mph91%29.89 "Hg5 mi
8:00 PM61 °FSprinkles. Overcast.6 mph84%29.88 "Hg5 mi
7:00 PM60 °FOvercast.2 mph92%29.87 "Hg6 mi
6:00 PM61 °FOvercast.2 mph92%29.88 "Hg6 mi
5:00 PM60 °FOvercast.3 mph92%29.88 "Hg6 mi
4:00 PM60 °FLight rain. Low clouds.5 mph90%29.89 "Hg4 mi
3:00 PM60 °FLight rain. Overcast.3 mph89%29.90 "Hg5 mi
2:00 PM61 °FLight rain. Overcast.3 mph89%29.91 "Hg5 mi
1:00 PM62 °FLight rain. Overcast.2 mph84%29.91 "Hg6 mi
12:00 PM62 °FLight rain. Overcast.2 mph80%29.91 "Hg9 mi
11:00 AM61 °FOvercast.2 mph80%29.92 "Hg11 mi
10:00 AM60 °FOvercast.2 mph82%29.91 "Hg9 mi
9:00 AM59 °FOvercast.3 mph81%29.90 "Hg12 mi
8:00 AM58 °FOvercast.5 mph85%29.90 "Hg9 mi
7:00 AM57 °FOvercast.3 mph86%29.90 "Hg9 mi
6:00 AM58 °FOvercast.3 mph86%29.90 "Hg7 mi
5:00 AM58 °FLight rain. Overcast.2 mph88%29.90 "Hg7 mi
4:00 AM58 °FOvercast.2 mph89%29.91 "Hg9 mi
Weather by CustomWeather, © 2014

See weather overview